Hourly Weather Otjozondjupa

Today, 30 July, Friday

Time Temperature Precipitation Wind Pressure Humidity
00:00 +9°C° 0 mm 3 mps 656 mmHg 35%
01:00 +9°C° 0 mm 3 mps 656 mmHg 36%
02:00 +8°C° 0 mm 2 mps 656 mmHg 38%
03:00 +7°C° 0 mm 2 mps 656 mmHg 40%
04:00 +6°C° 0 mm 2 mps 655 mmHg 42%
05:00 +7°C° 0 mm 2 mps 656 mmHg 41%
06:00 +7°C° 0 mm 2 mps 657 mmHg 41%
07:00 +8°C° 0 mm 1 mps 657 mmHg 41%
08:00 +11°C° 0 mm 3 mps 658 mmHg 33%
09:00 +15°C° 0 mm 5 mps 659 mmHg 25%
10:00 +21°C° 0 mm 7 mps 660 mmHg 18%
11:00 +22°C° 0 mm 7 mps 660 mmHg 16%
12:00 +23°C° 0 mm 7 mps 659 mmHg 14%
13:00 +24°C° 0 mm 8 mps 659 mmHg 13%
14:00 +24°C° 0 mm 7 mps 658 mmHg 13%
15:00 +24°C° 0 mm 7 mps 658 mmHg 13%
16:00 +24°C° 0 mm 7 mps 657 mmHg 13%
17:00 +21°C° 0 mm 6 mps 657 mmHg 17%
18:00 +17°C° 0 mm 5 mps 657 mmHg 21%
19:00 +15°C° 0 mm 4 mps 657 mmHg 25%
20:00 +13°C° 0 mm 4 mps 657 mmHg 26%
21:00 +12°C° 0 mm 4 mps 657 mmHg 26%
22:00 +11°C° 0 mm 3 mps 658 mmHg 26%
23:00 +10°C° 0 mm 3 mps 657 mmHg 27%

Tomorrow, 31 July, Saturday

Time Temperature Precipitation Wind Pressure Humidity
00:00 +9°C° 0 mm 3 mps 657 mmHg 28%
01:00 +9°C° 0 mm 3 mps 657 mmHg 29%
02:00 +8°C° 0 mm 3 mps 656 mmHg 31%
03:00 +7°C° 0 mm 2 mps 656 mmHg 33%
04:00 +7°C° 0 mm 1 mps 656 mmHg 35%
05:00 +6°C° 0 mm 2 mps 656 mmHg 35%
06:00 +7°C° 0 mm 2 mps 657 mmHg 35%
07:00 +7°C° 0 mm 2 mps 658 mmHg 34%
08:00 +11°C° 0 mm 4 mps 659 mmHg 31%
09:00 +15°C° 0 mm 5 mps 660 mmHg 27%
10:00 +18°C° 0 mm 7 mps 661 mmHg 23%
11:00 +21°C° 0 mm 7 mps 660 mmHg 20%
12:00 +23°C° 0 mm 7 mps 659 mmHg 17%
13:00 +26°C° 0 mm 7 mps 659 mmHg 14%
14:00 +24°C° 0 mm 7 mps 658 mmHg 13%
15:00 +24°C° 0 mm 7 mps 658 mmHg 13%
16:00 +24°C° 0 mm 7 mps 658 mmHg 13%
17:00 +21°C° 0 mm 6 mps 657 mmHg 17%
18:00 +17°C° 0 mm 5 mps 657 mmHg 21%
19:00 +15°C° 0 mm 4 mps 657 mmHg 25%
20:00 +13°C° 0 mm 4 mps 657 mmHg 28%
21:00 +12°C° 0 mm 4 mps 657 mmHg 32%
22:00 +11°C° 0 mm 4 mps 657 mmHg 35%
23:00 +11°C° 0 mm 3 mps 657 mmHg 37%

Day after tomorrow, 1 August, Sunday

Time Temperature Precipitation Wind Pressure Humidity
00:00 +10°C° 0 mm 3 mps 657 mmHg 40%
01:00 +9°C° 0 mm 3 mps 656 mmHg 42%
02:00 +8°C° 0 mm 2 mps 656 mmHg 45%
03:00 +7°C° 0 mm 2 mps 656 mmHg 48%
04:00 +7°C° 0 mm 2 mps 656 mmHg 51%
05:00 +7°C° 0 mm 2 mps 656 mmHg 50%
06:00 +7°C° 0 mm 2 mps 657 mmHg 50%
07:00 +8°C° 0 mm 2 mps 657 mmHg 49%
08:00 +11°C° 0 mm 3 mps 658 mmHg 41%
09:00 +15°C° 0 mm 5 mps 659 mmHg 33%
10:00 +20°C° 0 mm 6 mps 659 mmHg 26%
11:00 +22°C° 0 mm 6 mps 659 mmHg 22%
12:00 +23°C° 0 mm 6 mps 658 mmHg 18%
13:00 +26°C° 0 mm 6 mps 658 mmHg 15%
14:00 +26°C° 0 mm 6 mps 657 mmHg 14%
15:00 +26°C° 0 mm 6 mps 657 mmHg 14%
16:00 +26°C° 0 mm 5 mps 656 mmHg 13%
17:00 +22°C° 0 mm 5 mps 656 mmHg 16%
18:00 +19°C° 0 mm 4 mps 656 mmHg 20%
19:00 +17°C° 0 mm 3 mps 656 mmHg 23%
20:00 +14°C° 0 mm 3 mps 656 mmHg 27%
21:00 +13°C° 0 mm 3 mps 656 mmHg 30%
22:00 +12°C° 0 mm 3 mps 656 mmHg 33%
23:00 +11°C° 0 mm 3 mps 656 mmHg 36%

2 August, Monday

Time Temperature Precipitation Wind Pressure Humidity
00:00 +10°C° 0 mm 2 mps 656 mmHg 39%
01:00 +9°C° 0 mm 2 mps 655 mmHg 42%
02:00 +9°C° 0 mm 2 mps 655 mmHg 44%
03:00 +9°C° 0 mm 2 mps 655 mmHg 45%
04:00 +8°C° 0 mm 2 mps 655 mmHg 47%
05:00 +8°C° 0 mm 2 mps 655 mmHg 48%
06:00 +9°C° 0 mm 2 mps 655 mmHg 48%
07:00 +9°C° 0 mm 2 mps 656 mmHg 48%
08:00 +13°C° 0 mm 3 mps 657 mmHg 40%
09:00 +17°C° 0 mm 4 mps 657 mmHg 32%
10:00 +21°C° 0 mm 6 mps 658 mmHg 24%
11:00 +23°C° 0 mm 5 mps 658 mmHg 21%
12:00 +26°C° 0 mm 4 mps 657 mmHg 17%
13:00 +28°C° 0 mm 4 mps 657 mmHg 14%
14:00 +28°C° 0 mm 3 mps 656 mmHg 14%
15:00 +28°C° 0 mm 3 mps 656 mmHg 13%
16:00 +28°C° 0 mm 2 mps 655 mmHg 13%
17:00 +25°C° 0 mm 2 mps 655 mmHg 16%
18:00 +21°C° 0 mm 3 mps 655 mmHg 19%
19:00 +18°C° 0 mm 3 mps 655 mmHg 23%
20:00 +17°C° 0 mm 3 mps 655 mmHg 25%
21:00 +16°C° 0 mm 3 mps 655 mmHg 27%
22:00 +14°C° 0 mm 3 mps 655 mmHg 29%
23:00 +13°C° 0 mm 3 mps 655 mmHg 31%

3 August, Tuesday

Time Temperature Precipitation Wind Pressure Humidity
00:00 +13°C° 0 mm 2 mps 654 mmHg 33%
01:00 +12°C° 0 mm 2 mps 654 mmHg 35%
02:00 +10°C° 0 mm 2 mps 654 mmHg 36%
03:00 +10°C° 0 mm 2 mps 654 mmHg 37%
04:00 +9°C° 0 mm 2 mps 653 mmHg 38%
05:00 +10°C° 0 mm 2 mps 654 mmHg 38%
06:00 +10°C° 0 mm 2 mps 654 mmHg 38%
07:00 +10°C° 0 mm 2 mps 655 mmHg 37%
08:00 +14°C° 0 mm 3 mps 656 mmHg 31%
09:00 +19°C° 0 mm 4 mps 657 mmHg 24%
10:00 +23°C° 0 mm 5 mps 658 mmHg 17%
11:00 +26°C° 0 mm 4 mps 657 mmHg 16%
12:00 +27°C° 0 mm 4 mps 657 mmHg 14%
13:00 +29°C° 0 mm 3 mps 657 mmHg 12%
14:00 +29°C° 0 mm 3 mps 656 mmHg 12%
15:00 +29°C° 0 mm 3 mps 656 mmHg 12%
16:00 +29°C° 0 mm 2 mps 656 mmHg 12%
17:00 +26°C° 0 mm 2 mps 655 mmHg 15%
18:00 +23°C° 0 mm 2 mps 655 mmHg 18%
19:00 +19°C° 0 mm 3 mps 655 mmHg 21%
20:00 +18°C° 0 mm 2 mps 655 mmHg 23%
21:00 +17°C° 0 mm 2 mps 655 mmHg 25%
22:00 +16°C° 0 mm 2 mps 655 mmHg 27%
23:00 +15°C° 0 mm 2 mps 655 mmHg 28%

4 August, Wednesday

Time Temperature Precipitation Wind Pressure Humidity
00:00 +15°C° 0 mm 2 mps 654 mmHg 29%
01:00 +14°C° 0 mm 2 mps 654 mmHg 30%
02:00 +14°C° 0 mm 2 mps 654 mmHg 30%
03:00 +13°C° 0 mm 2 mps 654 mmHg 30%
04:00 +13°C° 0 mm 2 mps 654 mmHg 31%
05:00 +13°C° 0 mm 2 mps 654 mmHg 30%
06:00 +12°C° 0 mm 2 mps 655 mmHg 30%
07:00 +12°C° 0 mm 2 mps 655 mmHg 30%
08:00 +16°C° 0 mm 2 mps 656 mmHg 26%
09:00 +19°C° 0 mm 3 mps 657 mmHg 22%
10:00 +23°C° 0 mm 4 mps 658 mmHg 17%
11:00 +26°C° 0 mm 3 mps 657 mmHg 16%
12:00 +28°C° 0 mm 3 mps 657 mmHg 14%
13:00 +30°C° 0 mm 3 mps 657 mmHg 12%
14:00 +30°C° 0 mm 3 mps 656 mmHg 12%
15:00 +30°C° 0 mm 3 mps 656 mmHg 12%
16:00 +30°C° 0 mm 2 mps 655 mmHg 12%
17:00 +27°C° 0 mm 2 mps 655 mmHg 15%
18:00 +24°C° 0 mm 2 mps 655 mmHg 19%
19:00 +19°C° 0 mm 2 mps 654 mmHg 22%
20:00 +19°C° 0 mm 2 mps 654 mmHg 23%
21:00 +18°C° 0 mm 2 mps 655 mmHg 25%
22:00 +17°C° 0 mm 2 mps 655 mmHg 26%
23:00 +16°C° 0 mm 2 mps 655 mmHg 27%
Show more